Change the Weather History Date:

Thursday, April 11, 2013

  Actual Average (KSNY) Record (KSNY)
Temperature  
Mean Temperature 24 °F 46 °F  
Max Temperature 41 °F 60 °F 83 °F (1977)
Min Temperature 7 °F 31 °F 7 °F (1997)
Degree Days  
Heating Degree Days 41 19  
Month to date heating degree days 229  
Since 1 July heating degree days 5614  
Cooling Degree Days 0 0  
Month to date cooling degree days 0  
Year to date cooling degree days 0  
Moisture  
Dew Point 21 °F    
Average Humidity 81    
Maximum Humidity 92    
Minimum Humidity 68    
Precipitation  
Precipitation 0.00 in 0.07 in 1.26 in (1955)
Month to date precipitation 0.61  
Year to date precipitation 2.23  
Sea Level Pressure  
Sea Level Pressure 29.76 in    
Wind  
Wind Speed 10 mph (NW)    
Max Wind Speed 24 mph    
Max Gust Speed 31 mph    
Visibility 9 miles    
Events Rain , Snow    
T = Trace of Precipitation, MM = Missing Value Source: NWS Daily Summary

Daily Weather History Graph

Daily Weather History Graph

Search for Another Location

Airport or City:

Trip Planner

Search our weather history database for the weather conditions in past years. The results will help you decide how hot, cold, wet, or windy it might be!

Date:

Astronomy

Apr. 11, 2013 Rise Set
Actual Time 7:21 AM CDT 8:30 PM CDT
Civil Twilight 6:52 AM CDT 8:59 PM CDT
Nautical Twilight 6:18 AM CDT 9:33 PM CDT
Astronomical Twilight 5:43 AM CDT 10:08 PM CDT
Moon 7:53 AM CDT (4/11) 10:08 PM CDT (4/11)
Length of Visible Light 14h 06m
Length of Day
13h 09m
New Moon, 2% of the Moon is Illuminated
Apr 11
New Moon
Apr 18
First Quarter
Apr 25
Full
May 2
Last Quarter
May 9
New

Hourly Weather History & Observations

Time (CDT) Temp. Windchill Dew Point Humidity Pressure Visibility Wind Dir Wind Speed Gust Speed Precip Events Conditions
12:15 AM 19.8 °F 9.9 °F 15.4 °F 83% 29.87 in 10.0 mi WSW 8.1 mph - N/A   Overcast
12:35 AM 19.4 °F 12.8 °F 14.9 °F 83% 29.86 in 10.0 mi West 4.6 mph - N/A   Overcast
12:55 AM 18.5 °F 8.4 °F 14.0 °F 83% 29.86 in 10.0 mi West 8.1 mph - N/A   Overcast
1:15 AM 17.1 °F 6.6 °F 12.4 °F 82% 29.85 in 10.0 mi West 8.1 mph - N/A   Scattered Clouds
1:35 AM 14.7 °F 4.8 °F 10.6 °F 84% 29.84 in 10.0 mi West 6.9 mph - N/A   Clear
1:55 AM 13.3 °F 1.1 °F 9.9 °F 86% 29.83 in 10.0 mi West 9.2 mph - N/A   Clear
2:15 AM 12.2 °F 0.7 °F 8.8 °F 86% 29.83 in 10.0 mi West 8.1 mph - N/A   Clear
2:35 AM 11.8 °F 0.3 °F 8.4 °F 86% 29.81 in 10.0 mi West 8.1 mph - N/A   Clear
2:55 AM 11.1 °F 0.4 °F 7.9 °F 87% 29.80 in 10.0 mi West 6.9 mph - N/A   Clear
3:15 AM 9.5 °F 3.0 °F 6.3 °F 87% 29.78 in 10.0 mi WNW 3.5 mph - N/A   Clear
3:35 AM 9.5 °F -2.6 °F 6.8 °F 89% 29.77 in 10.0 mi West 8.1 mph - N/A   Clear
3:55 AM 9.9 °F -2.2 °F 6.8 °F 87% 29.75 in 10.0 mi West 8.1 mph - N/A   Clear
4:15 AM 8.6 °F -5.5 °F 5.4 °F 87% 29.74 in 10.0 mi West 10.4 mph - N/A   Clear
4:35 AM 8.2 °F -4.1 °F 5.2 °F 87% 29.72 in 10.0 mi West 8.1 mph - N/A   Clear
4:55 AM 7.0 °F -5.7 °F 3.9 °F 87% 29.72 in 10.0 mi West 8.1 mph - N/A   Clear
5:15 AM 8.6 °F -4.7 °F 5.4 °F 87% 29.71 in 10.0 mi West 9.2 mph - N/A   Clear
5:35 AM 8.6 °F -2.6 °F 5.7 °F 88% 29.71 in 10.0 mi West 6.9 mph - N/A   Clear
5:55 AM 7.9 °F -4.6 °F 5.0 °F 88% 29.71 in 10.0 mi West 8.1 mph - N/A   Clear
6:15 AM 8.1 °F -2.0 °F 5.0 °F 87% 29.70 in 10.0 mi WNW 5.8 mph - N/A   Clear
6:35 AM 8.4 °F -2.8 °F 5.7 °F 89% 29.70 in 10.0 mi West 6.9 mph - N/A   Clear
6:55 AM 9.3 °F -1.7 °F 6.8 °F 89% 29.69 in 10.0 mi West 6.9 mph - N/A   Clear
7:15 AM 9.1 °F -3.0 °F 6.1 °F 87% 29.70 in 10.0 mi West 8.1 mph - N/A   Clear
7:35 AM 9.3 °F -5.4 °F 6.6 °F 89% 29.70 in 10.0 mi WNW 11.5 mph - N/A   Clear
7:55 AM 11.7 °F -1.7 °F 8.4 °F 87% 29.71 in 10.0 mi West 10.4 mph - N/A   Scattered Clouds
8:15 AM 13.1 °F 5.4 °F 9.5 °F 86% 29.70 in 10.0 mi NW 4.6 mph - N/A   Mostly Cloudy
8:35 AM 13.8 °F 0.2 °F 10.0 °F 85% 29.71 in 10.0 mi WNW 11.5 mph - N/A   Scattered Clouds
8:55 AM 16.0 °F 5.3 °F 11.8 °F 84% 29.70 in 10.0 mi NW 8.1 mph - N/A   Scattered Clouds
9:15 AM 18.5 °F 7.5 °F 13.5 °F 81% 29.70 in 10.0 mi WNW 9.2 mph - N/A   Mostly Cloudy
9:35 AM 20.1 °F 8.8 °F 14.7 °F 80% 29.70 in 7.0 mi WNW 10.4 mph - N/A   Overcast
9:55 AM 22.1 °F 12.8 °F 17.8 °F 83% 29.70 in 1.8 mi NW 8.1 mph - N/A Snow Light Snow
10:15 AM 23.2 °F 14.1 °F 19.4 °F 85% 29.70 in 2.0 mi NW 8.1 mph - N/A Snow Light Snow
10:35 AM 25.5 °F 13.8 °F 21.4 °F 84% 29.70 in 4.0 mi NW 13.8 mph 19.6 mph N/A Snow Light Snow
10:55 AM 28.9 °F 18.2 °F 22.3 °F 76% 29.71 in 10.0 mi NNW 13.8 mph 20.7 mph N/A   Overcast
11:15 AM 28.9 °F 21.1 °F 22.1 °F 76% 29.73 in 10.0 mi NW 8.1 mph - N/A   Overcast
11:35 AM 30.0 °F 25.2 °F 23.4 °F 76% 29.74 in 10.0 mi WNW 4.6 mph - N/A   Overcast
12:15 PM 31.8 °F 23.3 °F 26.2 °F 80% 29.75 in 3.0 mi NNE 10.4 mph - N/A Rain Light Freezing Rain
12:35 PM 29.7 °F 20.1 °F 23.9 °F 79% 29.75 in 5.0 mi NE 11.5 mph - N/A Snow Light Snow
12:55 PM 29.7 °F 21.3 °F 24.6 °F 81% 29.75 in 5.0 mi NNE 9.2 mph - N/A Rain Light Freezing Rain
1:15 PM 30.7 °F 23.3 °F 24.3 °F 77% 29.76 in 10.0 mi North 8.1 mph - N/A   Overcast
1:35 PM 32.4 °F 24.6 °F 25.2 °F 75% 29.76 in 10.0 mi North 9.2 mph - N/A   Overcast
1:55 PM 32.5 °F 26.2 °F 25.2 °F 74% 29.76 in 10.0 mi North 6.9 mph - N/A   Overcast
2:15 PM 34.0 °F 26.6 °F 26.6 °F 74% 29.75 in 10.0 mi NW 9.2 mph - N/A   Mostly Cloudy
2:35 PM 34.9 °F 26.6 °F 28.8 °F 78% 29.75 in 10.0 mi NW 11.5 mph - N/A   Scattered Clouds
2:55 PM 38.3 °F 29.7 °F 30.9 °F 75% 29.74 in 10.0 mi NW 15.0 mph - N/A   Mostly Cloudy
3:15 PM 39.9 °F 29.5 °F 31.6 °F 72% 29.73 in 10.0 mi NW 24.2 mph - N/A   Scattered Clouds
3:35 PM 40.1 °F 30.7 °F 32.0 °F 73% 29.73 in 10.0 mi NW 19.6 mph 28.8 mph N/A   Clear
3:55 PM 40.6 °F 31.7 °F 32.4 °F 72% 29.75 in 10.0 mi NW 18.4 mph 26.5 mph N/A   Clear
4:15 PM 41.2 °F 31.9 °F 32.4 °F 71% 29.75 in 10.0 mi NW 20.7 mph - N/A   Clear
4:35 PM 41.5 °F 31.9 °F 32.2 °F 69% 29.75 in 10.0 mi NW 23.0 mph 31.1 mph N/A   Clear
4:55 PM 41.7 °F 32.6 °F 32.2 °F 69% 29.75 in 10.0 mi NW 20.7 mph 29.9 mph N/A   Clear
5:15 PM 41.9 °F 32.8 °F 32.2 °F 68% 29.75 in 10.0 mi NNW 20.7 mph 28.8 mph N/A   Clear
5:35 PM 41.9 °F 32.8 °F 32.2 °F 68% 29.75 in 10.0 mi NNW 20.7 mph 27.6 mph N/A   Clear
5:55 PM 41.9 °F 33.1 °F 32.2 °F 68% 29.76 in 10.0 mi NNW 19.6 mph 27.6 mph N/A   Clear
6:15 PM 41.9 °F 33.1 °F 32.0 °F 68% 29.76 in 10.0 mi NNW 19.6 mph 28.8 mph N/A   Clear
6:35 PM 41.5 °F 33.8 °F 32.4 °F 70% 29.76 in 10.0 mi NNW 15.0 mph 21.9 mph N/A   Clear
6:55 PM 41.4 °F 33.6 °F 32.4 °F 70% 29.77 in 10.0 mi NW 15.0 mph - N/A   Clear
7:15 PM 40.1 °F 31.3 °F 32.0 °F 73% 29.77 in 10.0 mi NW 17.3 mph 25.3 mph N/A   Scattered Clouds
7:35 PM 39.0 °F 31.0 °F 32.0 °F 76% 29.78 in 10.0 mi NW 13.8 mph - N/A   Scattered Clouds
7:55 PM 39.6 °F 31.3 °F 32.0 °F 74% 29.78 in 10.0 mi NW 15.0 mph - N/A   Clear
8:15 PM 38.8 °F 30.8 °F 32.0 °F 76% 29.78 in 10.0 mi NW 13.8 mph - N/A   Clear
8:35 PM 38.3 °F 31.4 °F 32.0 °F 78% 29.79 in 10.0 mi NW 10.4 mph 18.4 mph N/A   Clear
8:55 PM 37.6 °F 30.5 °F 32.0 °F 80% 29.79 in 10.0 mi NNW 10.4 mph - N/A   Clear
9:15 PM 36.1 °F 28.2 °F 32.0 °F 85% 29.80 in 10.0 mi North 11.5 mph - N/A   Clear
9:35 PM 35.2 °F 26.6 °F 32.0 °F 88% 29.81 in 10.0 mi North 12.7 mph - N/A   Clear
9:55 PM 35.2 °F 27.6 °F 32.0 °F 88% 29.82 in 10.0 mi NNW 10.4 mph - N/A   Clear
10:15 PM 34.5 °F 27.9 °F 32.0 °F 90% 29.83 in 10.0 mi NNW 8.1 mph - N/A   Clear
10:35 PM 34.9 °F 29.0 °F 31.8 °F 89% 29.84 in 10.0 mi NW 6.9 mph - N/A   Clear
10:55 PM 34.0 °F 28.8 °F 31.6 °F 91% 29.85 in 10.0 mi NW 5.8 mph - N/A   Clear
11:15 PM 31.8 °F 24.6 °F 29.8 °F 92% 29.85 in 10.0 mi WNW 8.1 mph - N/A   Clear
11:35 PM 33.3 °F 25.7 °F 31.3 °F 92% 29.85 in 10.0 mi NW 9.2 mph - N/A   Clear
11:55 PM 34.2 °F 27.5 °F 31.5 °F 90% 29.86 in 10.0 mi WNW 8.1 mph - N/A   Clear